Dallas/Ft Worth, TX

6:56 PM CDT on October 21, 2017 (GMT -0500)
Dallas-Fort Worth International

Weather History for KDFW - November, 2010

Change the Weather History Date:

Tuesday, November 9, 2010

  Actual Average Record
Temperature  
Mean Temperature 66 °F 59 °F  
Max Temperature 76 °F 70 °F 88 °F (2005)
Min Temperature 55 °F 49 °F 28 °F (1991)
Degree Days  
Heating Degree Days 0 7  
Month to date heating degree days 59 54  
Since 1 July heating degree days 85 126  
Cooling Degree Days 1 1  
Month to date cooling degree days 2 17  
Year to date cooling degree days 3172 2740  
Growing Degree Days 15 (Base 50)    
Moisture  
Dew Point 54 °F    
Average Humidity 68    
Maximum Humidity 93    
Minimum Humidity 43    
Precipitation  
Precipitation 0.00 in 0.10 in 2.68 in (1937)
Month to date precipitation 1.34 0.99  
Year to date precipitation 29.49 31.87  
Snow  
Snow 0.00 in 0.00 in T in (1948)
Month to date snowfall 0.0 0.0  
Since 1 July snowfall 0.0 0.0  
Since 1 September snowfall 0.0 0.0  
Snow Depth 0.00 in    
Sea Level Pressure  
Sea Level Pressure 29.87 in    
Wind  
Wind Speed 14 mph (South)    
Max Wind Speed 26 mph    
Max Gust Speed 32 mph    
Visibility 10 miles    
Events      
T = Trace of Precipitation, MM = Missing Value Source: NWS Daily Summary

Daily Weather History Graph

Daily Weather History Graph

Search for Another Location

Airport or City:

Trip Planner

Search our weather history database for the weather conditions in past years. The results will help you decide how hot, cold, wet, or windy it might be!

Date:

Astronomy

Nov. 09, 2010 Rise Set
Actual Time 6:53 AM CST 5:30 PM CST
Civil Twilight 6:27 AM CST 5:56 PM CST
Nautical Twilight 5:57 AM CST 6:25 PM CST
Astronomical Twilight 5:28 AM CST 6:54 PM CST
Moon 10:26 AM CST (11/9) 8:37 PM CST (11/9)
Length of Visible Light 11h 29m
Length of Day
10h 37m
Waxing Crescent, 15% of the Moon is Illuminated
Nov 9
Waxing Crescent
Nov 13
First Quarter
Nov 21
Full
Nov 28
Last Quarter
Dec 5
New

Hourly Weather History & Observations

Time (CST) Temp. Dew Point Humidity Pressure Visibility Wind Dir Wind Speed Gust Speed Precip Events Conditions
12:53 AM 61.0 °F 52.0 °F 72% 29.91 in 10.0 mi South 11.5 mph - N/A   Scattered Clouds
1:53 AM 60.1 °F 53.1 °F 78% 29.90 in 10.0 mi South 13.8 mph - N/A   Mostly Cloudy
2:53 AM 59.0 °F 53.1 °F 81% 29.90 in 10.0 mi South 12.7 mph - N/A   Mostly Cloudy
3:53 AM 57.0 °F 53.1 °F 87% 29.89 in 10.0 mi South 11.5 mph - N/A   Mostly Cloudy
4:53 AM 55.9 °F 53.1 °F 90% 29.90 in 10.0 mi South 11.5 mph - N/A   Mostly Cloudy
5:53 AM 55.9 °F 53.1 °F 90% 29.90 in 10.0 mi SSE 8.1 mph - N/A   Mostly Cloudy
6:53 AM 55.9 °F 53.1 °F 90% 29.90 in 10.0 mi SSE 5.8 mph - N/A   Mostly Cloudy
7:53 AM 57.9 °F 55.0 °F 90% 29.92 in 10.0 mi South 6.9 mph - N/A   Mostly Cloudy
8:53 AM 62.6 °F 55.4 °F 77% 29.94 in 10.0 mi South 15.0 mph - N/A   Mostly Cloudy
9:53 AM 66.0 °F 55.9 °F 70% 29.92 in 10.0 mi South 18.4 mph 31.1 mph N/A   Mostly Cloudy
10:53 AM 69.1 °F 55.9 °F 63% 29.91 in 10.0 mi South 18.4 mph 26.5 mph N/A   Mostly Cloudy
11:13 AM 71.6 °F 57.2 °F 60% 29.92 in 10.0 mi South 20.7 mph - N/A   Mostly Cloudy
11:40 AM 71.6 °F 55.4 °F 57% 29.91 in 10.0 mi South 23.0 mph - N/A   Mostly Cloudy
11:53 AM 72.0 °F 55.9 °F 57% 29.89 in 10.0 mi South 25.3 mph 31.1 mph N/A   Mostly Cloudy
12:53 PM 73.9 °F 54.0 °F 50% 29.85 in 10.0 mi South 18.4 mph 28.8 mph N/A   Mostly Cloudy
1:53 PM 75.0 °F 52.0 °F 44% 29.82 in 10.0 mi South 21.9 mph 26.5 mph N/A   Mostly Cloudy
2:53 PM 75.0 °F 52.0 °F 44% 29.81 in 10.0 mi South 23.0 mph 28.8 mph N/A   Mostly Cloudy
3:53 PM 73.9 °F 51.1 °F 45% 29.80 in 10.0 mi South 18.4 mph 27.6 mph N/A   Mostly Cloudy
4:53 PM 72.0 °F 51.1 °F 48% 29.79 in 10.0 mi South 16.1 mph - N/A   Mostly Cloudy
5:53 PM 70.0 °F 52.0 °F 53% 29.81 in 10.0 mi SSE 11.5 mph - N/A   Mostly Cloudy
6:53 PM 68.0 °F 52.0 °F 56% 29.82 in 10.0 mi SSE 9.2 mph - N/A   Mostly Cloudy
7:53 PM 66.9 °F 53.1 °F 61% 29.82 in 10.0 mi SSE 9.2 mph - N/A   Scattered Clouds
8:53 PM 64.4 °F 53.6 °F 68% 29.85 in 10.0 mi SSE 8.1 mph - N/A   Scattered Clouds
9:53 PM 60.1 °F 54.0 °F 80% 29.85 in 10.0 mi SE 9.2 mph - N/A   Scattered Clouds
10:53 PM 63.0 °F 54.0 °F 72% 29.85 in 10.0 mi SSE 11.5 mph - N/A   Clear
11:53 PM 63.0 °F 55.0 °F 75% 29.86 in 10.0 mi SSE 10.4 mph - N/A   Clear